Kuiper-00102

operational
NORAD ID: 65140 Int'l Des: 2025-171 Owner: KUIP Country: US Constellation: kuiper
LEOCIRCULAR

Kuiper-00102について

説明を読み込み中...

リアルタイム位置

3D地球を読み込み中...

次回通過

高度履歴

Altitude vs Time

uPlot chart will show altitude changes over time

軌道要素

1 65140U 25171J 25304.25002315 -.00557276 00000-0 -17913-1 0 9990
2 65140 51.8785 15.0897 0007194 57.4342 255.9022 15.34009271 5178
Epoch: Oct 31, 2025 • Age: 7 hours

現在のステータス

高度 466.8 km
速度 7.64 km/s
衛星直下点 45.93°N, 94.41°W
打ち上げ日 Aug 11, 2025
運用期間 0.2 years
タイプ internet

技術仕様

分類 Payload
質量 490.00 kg
乾燥質量 490.00 kg
総質量 490.00 kg
長さ 1.80 m
直径 0.70 m
スパン 5.00 m
形状 Box + 2 pan
製造者 KUIP
バスタイプ Kuiper
フェーズステータス In Orbit
所有者/国 KUIP/US

大規模コンステレーション

Loading constellations...